Time,TemperatureF,DewpointF,PressureIn,WindDirection,WindDirectionDegrees,WindSpeedMPH,WindSpeedGustMPH,Humidity,HourlyPrecipIn,Conditions,Clouds,dailyrainin,SoftwareType,DateUTC
2013-02-28 00:00:00,41.7,39.8,29.52,SSW,202,2.0,6.0,93,0.00,RA,,0.00,WeatherDisplay:10.37,2013-02-28 05:00:00,
2013-02-28 00:01:00,41.9,40.0,29.52,WSW,248,2.2,6.9,93,0.00,RA,,0.00,WeatherDisplay:10.37,2013-02-28 05:01:00,
2013-02-28 00:06:00,41.7,39.8,29.52,WSW,248,1.6,2.3,93,0.00,RA,,0.00,WeatherDisplay:10.37,2013-02-28 05:06:00,
2013-02-28 00:11:00,41.7,39.8,29.52,WSW,248,1.8,4.6,93,0.00,CLR,,0.00,WeatherDisplay:10.37,2013-02-28 05:11:00,
2013-02-28 00:16:00,41.7,39.8,29.52,SW,225,2.9,4.6,93,0.00,CLR,,0.00,WeatherDisplay:10.37,2013-02-28 05:16:00,
2013-02-28 00:21:00,41.7,39.8,29.52,SW,225,5.4,5.4,93,0.00,CLR,,0.00,WeatherDisplay:10.37,2013-02-28 05:21:00,
2013-02-28 00:26:00,41.5,39.7,29.52,SSW,202,1.4,1.4,93,0.00,CLR,,0.00,WeatherDisplay:10.37,2013-02-28 05:26:00,
2013-02-28 00:31:00,41.5,39.7,29.51,SW,225,1.1,1.8,93,0.00,CLR,,0.00,WeatherDisplay:10.37,2013-02-28 05:31:00,
2013-02-28 00:36:00,41.5,39.7,29.51,SW,225,3.1,3.1,93,0.00,CLR,,0.00,WeatherDisplay:10.37,2013-02-28 05:36:00,
2013-02-28 00:41:00,41.4,39.5,29.51,SSW,202,1.1,1.1,93,0.00,CLR,,0.00,WeatherDisplay:10.37,2013-02-28 05:41:00,
2013-02-28 00:46:00,41.4,39.5,29.51,WNW,292,1.1,2.3,93,0.00,CLR,,0.00,WeatherDisplay:10.37,2013-02-28 05:46:00,
2013-02-28 00:51:00,41.4,39.5,29.51,SSW,202,0.7,2.3,93,0.00,CLR,,0.00,WeatherDisplay:10.37,2013-02-28 05:51:00,
2013-02-28 00:56:00,41.4,39.5,29.51,WSW,248,0.9,2.3,93,0.00,CLR,,0.00,WeatherDisplay:10.37,2013-02-28 05:56:00,
2013-02-28 01:01:00,41.4,39.5,29.52,WSW,248,1.1,3.5,93,0.00,CLR,,0.00,WeatherDisplay:10.37,2013-02-28 06:01:00,
2013-02-28 01:06:00,41.4,39.5,29.52,SW,225,0.7,1.1,93,0.00,CLR,,0.00,WeatherDisplay:10.37,2013-02-28 06:06:00,
2013-02-28 01:11:00,41.4,39.5,29.52,South,180,1.8,3.5,93,0.00,CLR,,0.00,WeatherDisplay:10.37,2013-02-28 06:11:00,
2013-02-28 01:16:00,41.4,39.5,29.52,SSW,202,1.8,2.3,93,0.00,CLR,,0.00,WeatherDisplay:10.37,2013-02-28 06:16:00,
2013-02-28 01:21:00,41.2,39.3,29.52,South,180,2.0,3.5,93,0.00,CLR,,0.00,WeatherDisplay:10.37,2013-02-28 06:21:00,
2013-02-28 01:26:00,41.2,39.3,29.52,SW,225,1.8,1.8,93,0.00,CLR,,0.00,WeatherDisplay:10.37,2013-02-28 06:26:00,
2013-02-28 01:31:00,41.2,39.0,29.53,SSW,202,0.5,1.1,92,0.00,CLR,,0.00,WeatherDisplay:10.37,2013-02-28 06:31:00,
2013-02-28 01:36:00,41.2,39.0,29.53,SSW,202,0.9,2.3,92,0.00,CLR,,0.00,WeatherDisplay:10.37,2013-02-28 06:36:00,
2013-02-28 01:41:00,41.0,38.9,29.52,South,180,3.3,3.3,92,0.00,CLR,,0.00,WeatherDisplay:10.37,2013-02-28 06:41:00,
2013-02-28 01:46:00,41.0,38.9,29.53,SW,225,0.0,0.0,92,0.00,CLR,,0.00,WeatherDisplay:10.37,2013-02-28 06:46:00,
2013-02-28 01:51:00,40.8,38.7,29.52,SSW,202,0.0,2.3,92,0.00,CLR,,0.00,WeatherDisplay:10.37,2013-02-28 06:51:00,
2013-02-28 01:56:00,40.8,38.7,29.53,SW,225,0.5,1.1,92,0.00,CLR,,0.00,WeatherDisplay:10.37,2013-02-28 06:56:00,
2013-02-28 02:01:00,40.8,38.7,29.52,SW,225,0.0,2.3,92,0.00,CLR,,0.00,WeatherDisplay:10.37,2013-02-28 07:01:00,
2013-02-28 02:06:00,40.6,38.5,29.53,SSW,202,2.0,2.0,92,0.00,CLR,,0.00,WeatherDisplay:10.37,2013-02-28 07:06:00,
2013-02-28 02:11:00,40.6,38.5,29.52,SSW,202,0.0,0.0,92,0.00,CLR,,0.00,WeatherDisplay:10.37,2013-02-28 07:11:00,
2013-02-28 02:16:00,40.6,38.5,29.52,SSW,202,0.0,0.0,92,0.00,CLR,,0.00,WeatherDisplay:10.37,2013-02-28 07:16:00,
2013-02-28 02:21:00,40.6,38.5,29.52,SSW,202,0.0,0.0,92,0.00,CLR,,0.00,WeatherDisplay:10.37,2013-02-28 07:21:00,
2013-02-28 02:26:00,40.6,38.5,29.52,South,180,0.7,1.1,92,0.00,CLR,,0.00,WeatherDisplay:10.37,2013-02-28 07:26:00,
2013-02-28 02:31:00,40.6,38.5,29.52,SW,225,0.0,0.0,92,0.00,CLR,,0.00,WeatherDisplay:10.37,2013-02-28 07:31:00,
2013-02-28 02:36:00,40.6,38.5,29.52,SW,225,0.5,1.1,92,0.00,CLR,,0.00,WeatherDisplay:10.37,2013-02-28 07:36:00,
2013-02-28 02:41:00,40.6,38.5,29.52,SW,225,0.0,0.0,92,0.00,CLR,,0.00,WeatherDisplay:10.37,2013-02-28 07:41:00,
2013-02-28 02:46:00,40.6,38.5,29.52,SW,225,0.0,1.1,92,0.00,CLR,,0.00,WeatherDisplay:10.37,2013-02-28 07:46:00,
2013-02-28 02:51:00,40.6,38.5,29.52,SSW,202,0.0,1.1,92,0.00,CLR,,0.00,WeatherDisplay:10.37,2013-02-28 07:51:00,
2013-02-28 02:56:00,40.6,38.5,29.52,SSW,202,0.9,2.3,92,0.00,CLR,,0.00,WeatherDisplay:10.37,2013-02-28 07:56:00,
2013-02-28 03:01:00,40.5,38.3,29.52,SSW,202,0.5,1.1,92,0.00,CLR,,0.00,WeatherDisplay:10.37,2013-02-28 08:01:00,
2013-02-28 03:06:00,40.5,38.3,29.52,SSW,202,0.5,0.5,92,0.00,CLR,,0.00,WeatherDisplay:10.37,2013-02-28 08:06:00,
2013-02-28 03:11:00,40.6,38.5,29.53,SW,225,0.0,1.1,92,0.00,CLR,,0.00,WeatherDisplay:10.37,2013-02-28 08:11:00,
2013-02-28 03:16:00,40.5,38.3,29.53,SW,225,1.6,1.6,92,0.00,CLR,,0.00,WeatherDisplay:10.37,2013-02-28 08:16:00,
2013-02-28 03:21:00,40.5,38.3,29.52,SW,225,0.0,0.0,92,0.00,CLR,,0.00,WeatherDisplay:10.37,2013-02-28 08:21:00,
2013-02-28 03:26:00,40.5,38.3,29.53,SSW,202,1.6,1.6,92,0.00,CLR,,0.00,WeatherDisplay:10.37,2013-02-28 08:26:00,
2013-02-28 03:31:00,40.5,38.3,29.54,SW,225,0.5,1.1,92,0.00,CLR,,0.00,WeatherDisplay:10.37,2013-02-28 08:31:00,
2013-02-28 03:36:00,40.5,38.3,29.54,WNW,292,0.9,1.1,92,0.00,CLR,,0.00,WeatherDisplay:10.37,2013-02-28 08:36:00,
2013-02-28 03:41:00,40.5,38.3,29.54,SSW,202,0.7,0.7,92,0.00,CLR,,0.00,WeatherDisplay:10.37,2013-02-28 08:41:00,
2013-02-28 03:46:00,40.5,38.3,29.54,SSW,202,0.2,1.1,92,0.00,CLR,,0.00,WeatherDisplay:10.37,2013-02-28 08:46:00,
2013-02-28 03:51:00,40.5,38.3,29.53,NNW,338,0.5,1.1,92,0.00,CLR,,0.00,WeatherDisplay:10.37,2013-02-28 08:51:00,
2013-02-28 03:56:00,40.3,38.1,29.53,NNW,338,0.2,1.1,92,0.00,CLR,,0.00,WeatherDisplay:10.37,2013-02-28 08:56:00,
2013-02-28 04:01:00,40.3,38.1,29.54,NW,315,0.0,0.0,92,0.00,CLR,,0.00,WeatherDisplay:10.37,2013-02-28 09:01:00,
2013-02-28 04:06:00,40.3,38.1,29.54,WNW,292,1.1,2.3,92,0.00,CLR,,0.00,WeatherDisplay:10.37,2013-02-28 09:06:00,
2013-02-28 04:11:00,40.1,38.0,29.54,WSW,248,1.1,1.1,92,0.00,CLR,,0.00,WeatherDisplay:10.37,2013-02-28 09:11:00,
2013-02-28 04:16:00,39.9,37.8,29.54,WSW,248,0.2,1.1,92,0.00,CLR,,0.00,WeatherDisplay:10.37,2013-02-28 09:16:00,
2013-02-28 04:21:00,39.9,37.8,29.54,SW,225,0.0,1.1,92,0.00,CLR,,0.00,WeatherDisplay:10.37,2013-02-28 09:21:00,
2013-02-28 04:26:00,39.9,37.8,29.54,WSW,248,0.2,2.3,92,0.00,CLR,,0.00,WeatherDisplay:10.37,2013-02-28 09:26:00,
2013-02-28 04:31:00,39.9,37.8,29.54,SSW,202,1.1,2.3,92,0.00,CLR,,0.00,WeatherDisplay:10.37,2013-02-28 09:31:00,
2013-02-28 04:36:00,39.9,37.8,29.55,SW,225,1.8,2.3,92,0.00,CLR,,0.00,WeatherDisplay:10.37,2013-02-28 09:36:00,
2013-02-28 04:41:00,39.7,37.6,29.55,South,180,0.0,0.0,92,0.00,CLR,,0.00,WeatherDisplay:10.37,2013-02-28 09:41:00,
2013-02-28 04:46:00,39.7,37.6,29.55,SW,225,0.9,1.6,92,0.00,CLR,,0.00,WeatherDisplay:10.37,2013-02-28 09:46:00,
2013-02-28 04:51:00,39.7,37.6,29.55,SW,225,0.0,0.0,92,0.00,CLR,,0.00,WeatherDisplay:10.37,2013-02-28 09:51:00,
2013-02-28 04:56:00,39.7,37.6,29.56,SSW,202,0.5,1.1,92,0.00,CLR,,0.00,WeatherDisplay:10.37,2013-02-28 09:56:00,
2013-02-28 05:01:00,39.6,37.4,29.56,SSW,202,1.1,2.3,92,0.00,CLR,,0.00,WeatherDisplay:10.37,2013-02-28 10:01:00,
2013-02-28 05:06:00,39.6,37.4,29.56,SW,225,1.6,1.6,92,0.00,CLR,,0.00,WeatherDisplay:10.37,2013-02-28 10:06:00,
2013-02-28 05:11:00,39.6,37.4,29.56,SW,225,1.6,2.3,92,0.00,CLR,,0.00,WeatherDisplay:10.37,2013-02-28 10:11:00,
2013-02-28 05:16:00,39.6,37.4,29.56,SW,225,0.0,0.0,92,0.00,CLR,,0.00,WeatherDisplay:10.37,2013-02-28 10:16:00,
2013-02-28 05:21:00,39.4,37.2,29.56,SW,225,0.0,2.3,92,0.00,CLR,,0.00,WeatherDisplay:10.37,2013-02-28 10:21:00,
2013-02-28 05:26:00,39.6,37.4,29.56,SW,225,0.0,1.1,92,0.00,CLR,,0.00,WeatherDisplay:10.37,2013-02-28 10:26:00,
2013-02-28 05:31:00,39.4,37.2,29.56,SW,225,0.2,1.1,92,0.00,CLR,,0.00,WeatherDisplay:10.37,2013-02-28 10:31:00,
2013-02-28 05:36:00,39.4,37.2,29.56,WSW,248,0.5,0.5,92,0.00,CLR,,0.00,WeatherDisplay:10.37,2013-02-28 10:36:00,
2013-02-28 05:41:00,39.2,36.8,29.56,WSW,248,0.0,0.0,91,0.00,CLR,,0.00,WeatherDisplay:10.37,2013-02-28 10:41:00,
2013-02-28 05:46:00,39.2,36.8,29.56,SSW,202,0.7,0.7,91,0.00,CLR,,0.00,WeatherDisplay:10.37,2013-02-28 10:46:00,
2013-02-28 05:51:00,39.2,36.8,29.56,SSW,202,1.6,2.3,91,0.00,CLR,,0.00,WeatherDisplay:10.37,2013-02-28 10:51:00,
2013-02-28 05:56:00,39.0,36.6,29.56,SW,225,1.1,1.1,91,0.00,CLR,,0.00,WeatherDisplay:10.37,2013-02-28 10:56:00,
2013-02-28 06:01:00,39.0,36.6,29.56,SSW,202,0.5,2.3,91,0.00,CLR,,0.00,WeatherDisplay:10.37,2013-02-28 11:01:00,
2013-02-28 06:06:00,38.8,36.2,29.56,WSW,248,0.0,0.0,90,0.00,CLR,,0.00,WeatherDisplay:10.37,2013-02-28 11:06:00,
2013-02-28 06:11:00,38.5,35.8,29.56,SSW,202,0.0,0.0,90,0.00,CLR,,0.00,WeatherDisplay:10.37,2013-02-28 11:11:00,
2013-02-28 06:16:00,38.1,35.4,29.56,SW,225,0.5,1.1,90,0.00,CLR,,0.00,WeatherDisplay:10.37,2013-02-28 11:16:00,
2013-02-28 06:21:00,37.8,35.1,29.56,SW,225,0.0,0.2,90,0.00,CLR,,0.00,WeatherDisplay:10.37,2013-02-28 11:21:00,
2013-02-28 06:26:00,37.6,34.9,29.56,WSW,248,0.0,0.0,90,0.00,CLR,,0.00,WeatherDisplay:10.37,2013-02-28 11:26:00,
2013-02-28 06:31:00,37.2,34.6,29.56,SW,225,0.0,0.0,90,0.00,CLR,,0.00,WeatherDisplay:10.37,2013-02-28 11:31:00,
2013-02-28 06:36:00,37.0,34.4,29.56,SW,225,0.0,0.0,90,0.00,CLR,,0.00,WeatherDisplay:10.37,2013-02-28 11:36:00,
2013-02-28 06:41:00,37.0,34.4,29.55,SW,225,0.0,0.0,90,0.00,CLR,,0.00,WeatherDisplay:10.37,2013-02-28 11:41:00,
2013-02-28 06:46:00,37.0,34.4,29.55,SW,225,0.0,0.0,90,0.00,CLR,,0.00,WeatherDisplay:10.37,2013-02-28 11:46:00,
2013-02-28 06:51:00,37.0,34.4,29.55,SW,225,0.0,0.0,90,0.00,CLR,,0.00,WeatherDisplay:10.37,2013-02-28 11:51:00,
2013-02-28 06:56:00,37.0,34.4,29.56,SW,225,0.0,1.1,90,0.00,CLR,,0.00,WeatherDisplay:10.37,2013-02-28 11:56:00,
2013-02-28 07:01:00,37.2,34.6,29.55,SW,225,0.0,0.0,90,0.00,CLR,,0.00,WeatherDisplay:10.37,2013-02-28 12:01:00,
2013-02-28 07:06:00,37.4,34.7,29.55,WSW,248,0.0,0.0,90,0.00,CLR,,0.00,WeatherDisplay:10.37,2013-02-28 12:06:00,
2013-02-28 07:11:00,37.8,35.1,29.56,SSE,158,2.9,2.9,90,0.00,CLR,,0.00,WeatherDisplay:10.37,2013-02-28 12:11:00,
2013-02-28 07:16:00,38.1,35.4,29.56,West,270,0.0,1.1,90,0.00,CLR,,0.00,WeatherDisplay:10.37,2013-02-28 12:16:00,
2013-02-28 07:21:00,38.5,36.1,29.56,SSW,202,1.4,1.4,91,0.00,CLR,,0.00,WeatherDisplay:10.37,2013-02-28 12:21:00,
2013-02-28 07:26:00,38.7,36.3,29.56,SW,225,0.2,1.1,91,0.00,CLR,,0.00,WeatherDisplay:10.37,2013-02-28 12:26:00,
2013-02-28 07:31:00,38.8,36.2,29.56,SSE,158,0.7,1.1,90,0.00,CLR,,0.00,WeatherDisplay:10.37,2013-02-28 12:31:00,
2013-02-28 07:36:00,38.8,36.2,29.56,SSW,202,1.1,2.3,90,0.00,CLR,,0.00,WeatherDisplay:10.37,2013-02-28 12:36:00,
2013-02-28 07:41:00,39.0,36.6,29.57,SSW,202,0.9,1.1,91,0.00,CLR,,0.00,WeatherDisplay:10.37,2013-02-28 12:41:00,
2013-02-28 07:46:00,39.2,36.8,29.57,NW,315,0.5,0.5,91,0.00,CLR,,0.00,WeatherDisplay:10.37,2013-02-28 12:46:00,
2013-02-28 07:51:00,39.6,37.2,29.57,NNW,338,0.0,1.1,91,0.00,CLR,,0.00,WeatherDisplay:10.37,2013-02-28 12:51:00,
2013-02-28 07:56:00,39.9,37.5,29.57,NNW,338,0.0,0.0,91,0.00,CLR,,0.00,WeatherDisplay:10.37,2013-02-28 12:56:00,
2013-02-28 08:01:00,40.3,37.9,29.58,NNW,338,0.0,0.0,91,0.00,CLR,,0.00,WeatherDisplay:10.37,2013-02-28 13:01:00,
2013-02-28 08:06:00,40.5,38.0,29.58,SW,225,0.0,0.0,91,0.00,CLR,,0.00,WeatherDisplay:10.37,2013-02-28 13:06:00,
2013-02-28 08:11:00,40.6,38.2,29.58,NW,315,0.0,0.0,91,0.00,CLR,,0.00,WeatherDisplay:10.37,2013-02-28 13:11:00,
2013-02-28 08:16:00,40.6,38.2,29.58,WSW,248,0.5,0.5,91,0.00,CLR,,0.00,WeatherDisplay:10.37,2013-02-28 13:16:00,
2013-02-28 08:21:00,40.8,38.4,29.58,WNW,292,0.5,0.5,91,0.00,CLR,,0.00,WeatherDisplay:10.37,2013-02-28 13:21:00,
2013-02-28 08:26:00,41.0,38.3,29.58,WNW,292,0.2,1.1,90,0.00,CLR,,0.00,WeatherDisplay:10.37,2013-02-28 13:26:00,
2013-02-28 08:31:00,41.0,38.3,29.58,NW,315,0.0,1.1,90,0.00,CLR,,0.00,WeatherDisplay:10.37,2013-02-28 13:31:00,
2013-02-28 08:36:00,41.0,38.3,29.58,NW,315,0.0,0.0,90,0.00,CLR,,0.00,WeatherDisplay:10.37,2013-02-28 13:36:00,
2013-02-28 08:41:00,41.0,38.3,29.59,SW,225,0.5,0.5,90,0.00,CLR,,0.00,WeatherDisplay:10.37,2013-02-28 13:41:00,
2013-02-28 08:46:00,41.0,38.3,29.59,SSW,202,2.2,2.4,90,0.00,CLR,,0.00,WeatherDisplay:10.37,2013-02-28 13:46:00,
2013-02-28 08:51:00,41.0,38.3,29.59,WNW,292,0.0,0.0,90,0.00,CLR,,0.00,WeatherDisplay:10.37,2013-02-28 13:51:00,
2013-02-28 08:56:00,41.4,38.6,29.59,SSE,158,0.0,0.0,90,0.00,CLR,,0.00,WeatherDisplay:10.37,2013-02-28 13:56:00,
2013-02-28 09:01:00,41.5,38.8,29.59,NNE,22,0.0,0.0,90,0.00,CLR,,0.00,WeatherDisplay:10.37,2013-02-28 14:01:00,
2013-02-28 09:06:00,41.5,38.5,29.58,North,0,0.2,0.2,89,0.00,CLR,,0.00,WeatherDisplay:10.37,2013-02-28 14:06:00,
2013-02-28 09:11:00,41.5,38.5,29.58,North,0,0.5,0.0,89,0.00,CLR,,0.00,WeatherDisplay:10.37,2013-02-28 14:11:00,
2013-02-28 09:16:00,41.7,38.7,29.58,NNW,338,0.7,1.1,89,0.00,CLR,,0.00,WeatherDisplay:10.37,2013-02-28 14:16:00,
2013-02-28 09:21:00,41.9,38.9,29.57,NW,315,0.0,0.0,89,0.00,CLR,,0.00,WeatherDisplay:10.37,2013-02-28 14:21:00,
2013-02-28 09:26:00,42.1,38.8,29.57,NNW,338,0.5,1.1,88,0.00,CLR,,0.00,WeatherDisplay:10.37,2013-02-28 14:26:00,
2013-02-28 09:31:00,42.1,38.8,29.57,NNW,338,0.0,0.0,88,0.00,CLR,,0.00,WeatherDisplay:10.37,2013-02-28 14:31:00,
2013-02-28 09:36:00,42.4,39.1,29.57,SW,225,1.1,1.1,88,0.00,CLR,,0.00,WeatherDisplay:10.37,2013-02-28 14:36:00,
2013-02-28 09:41:00,42.6,39.0,29.57,NNW,338,0.2,2.3,87,0.00,CLR,,0.00,WeatherDisplay:10.37,2013-02-28 14:41:00,
2013-02-28 09:46:00,42.6,38.7,29.57,North,0,0.0,1.1,86,0.00,CLR,,0.00,WeatherDisplay:10.37,2013-02-28 14:46:00,
2013-02-28 09:51:00,42.6,38.7,29.57,NNW,338,2.2,2.3,86,0.00,CLR,,0.00,WeatherDisplay:10.37,2013-02-28 14:51:00,
2013-02-28 09:56:00,42.8,38.9,29.57,NNW,338,0.0,0.0,86,0.00,CLR,,0.00,WeatherDisplay:10.37,2013-02-28 14:56:00,
2013-02-28 10:01:00,43.0,39.1,29.57,NNW,338,0.9,1.1,86,0.00,CLR,,0.00,WeatherDisplay:10.37,2013-02-28 15:01:00,
2013-02-28 10:06:00,43.0,39.1,29.57,NW,315,0.2,0.5,86,0.00,CLR,,0.00,WeatherDisplay:10.37,2013-02-28 15:06:00,
2013-02-28 10:11:00,43.2,39.0,29.57,SSE,158,0.0,0.0,85,0.00,CLR,,0.00,WeatherDisplay:10.37,2013-02-28 15:11:00,
2013-02-28 10:16:00,43.2,39.3,29.56,SSW,202,0.0,1.1,86,0.00,CLR,,0.00,WeatherDisplay:10.37,2013-02-28 15:16:00,
2013-02-28 10:21:00,43.5,39.6,29.56,WSW,248,0.5,0.5,86,0.00,CLR,,0.00,WeatherDisplay:10.37,2013-02-28 15:21:00,
2013-02-28 10:26:00,44.1,40.1,29.56,South,180,0.5,0.5,86,0.00,CLR,,0.00,WeatherDisplay:10.37,2013-02-28 15:26:00,
2013-02-28 10:31:00,44.1,39.5,29.56,NNW,338,0.2,0.2,84,0.00,CLR,,0.00,WeatherDisplay:10.37,2013-02-28 15:31:00,
2013-02-28 10:36:00,44.2,39.7,29.56,NNW,338,0.7,1.1,84,0.00,CLR,,0.00,WeatherDisplay:10.37,2013-02-28 15:36:00,
2013-02-28 10:41:00,43.9,39.4,29.56,NW,315,0.0,1.1,84,0.00,CLR,,0.00,WeatherDisplay:10.37,2013-02-28 15:41:00,
2013-02-28 10:46:00,44.1,39.2,29.56,WNW,292,0.0,1.1,83,0.00,CLR,,0.00,WeatherDisplay:10.37,2013-02-28 15:46:00,
2013-02-28 10:51:00,44.1,39.2,29.56,North,0,0.2,0.2,83,0.00,CLR,,0.00,WeatherDisplay:10.37,2013-02-28 15:51:00,
2013-02-28 10:56:00,44.4,39.9,29.56,North,0,0.0,0.0,84,0.00,CLR,,0.00,WeatherDisplay:10.37,2013-02-28 15:56:00,
2013-02-28 11:01:00,45.1,40.3,29.56,South,180,0.9,1.1,83,0.00,CLR,,0.00,WeatherDisplay:10.37,2013-02-28 16:01:00,
2013-02-28 11:06:00,45.7,40.5,29.56,NW,315,0.5,1.1,82,0.00,CLR,,0.00,WeatherDisplay:10.37,2013-02-28 16:06:00,
2013-02-28 11:11:00,45.7,40.2,29.55,NW,315,0.0,0.0,81,0.00,CLR,,0.00,WeatherDisplay:10.37,2013-02-28 16:11:00,
2013-02-28 11:16:00,45.9,40.4,29.55,SSW,202,0.5,2.3,81,0.00,CLR,,0.00,WeatherDisplay:10.37,2013-02-28 16:16:00,
2013-02-28 11:21:00,46.4,40.9,29.55,WNW,292,0.2,1.1,81,0.00,CLR,,0.00,WeatherDisplay:10.37,2013-02-28 16:21:00,
2013-02-28 11:26:00,46.6,41.1,29.55,SW,225,2.9,2.9,81,0.00,CLR,,0.00,WeatherDisplay:10.37,2013-02-28 16:26:00,
2013-02-28 11:31:00,46.9,41.1,29.55,SSW,202,0.5,1.1,80,0.00,CLR,,0.00,WeatherDisplay:10.37,2013-02-28 16:31:00,
2013-02-28 11:36:00,47.1,40.6,29.55,NNW,338,0.5,1.1,78,0.00,CLR,,0.00,WeatherDisplay:10.37,2013-02-28 16:36:00,
2013-02-28 11:41:00,47.1,40.6,29.55,South,180,0.7,1.1,78,0.00,CLR,,0.00,WeatherDisplay:10.37,2013-02-28 16:41:00,
2013-02-28 11:46:00,47.3,41.1,29.55,West,270,0.2,1.1,79,0.00,CLR,,0.00,WeatherDisplay:10.37,2013-02-28 16:46:00,
2013-02-28 11:51:00,47.5,41.0,29.54,SSW,202,2.2,3.5,78,0.00,CLR,,0.00,WeatherDisplay:10.37,2013-02-28 16:51:00,
2013-02-28 11:56:00,47.5,40.6,29.54,NNW,338,0.5,1.1,77,0.00,CLR,,0.00,WeatherDisplay:10.37,2013-02-28 16:56:00,
2013-02-28 12:01:00,47.1,40.6,29.54,NE,45,0.5,1.1,78,0.00,CLR,,0.00,WeatherDisplay:10.37,2013-02-28 17:01:00,
2013-02-28 12:06:00,47.1,40.9,29.54,WSW,248,4.7,4.7,79,0.00,CLR,,0.00,WeatherDisplay:10.37,2013-02-28 17:06:00,
2013-02-28 12:11:00,46.9,40.8,29.53,SSW,202,1.8,4.6,79,0.00,CLR,,0.00,WeatherDisplay:10.37,2013-02-28 17:11:00,
2013-02-28 12:16:00,46.6,40.1,29.53,SSW,202,2.4,4.6,78,0.00,CLR,,0.00,WeatherDisplay:10.37,2013-02-28 17:16:00,
2013-02-28 12:21:00,46.2,40.1,29.53,South,180,0.7,1.1,79,0.00,CLR,,0.00,WeatherDisplay:10.37,2013-02-28 17:21:00,
2013-02-28 12:26:00,46.2,40.1,29.53,SSW,202,3.6,4.6,79,0.00,CLR,,0.00,WeatherDisplay:10.37,2013-02-28 17:26:00,
2013-02-28 12:31:00,45.9,39.4,29.53,South,180,2.0,2.6,78,0.00,CLR,,0.00,WeatherDisplay:10.37,2013-02-28 17:31:00,
2013-02-28 12:36:00,46.0,39.9,29.52,South,180,1.1,2.3,79,0.00,CLR,,0.00,WeatherDisplay:10.37,2013-02-28 17:36:00,
2013-02-28 12:41:00,46.0,39.9,29.52,SSW,202,0.0,1.1,79,0.00,CLR,,0.00,WeatherDisplay:10.37,2013-02-28 17:41:00,
2013-02-28 12:46:00,45.9,40.0,29.52,SSW,202,0.0,0.0,80,0.00,CLR,,0.00,WeatherDisplay:10.37,2013-02-28 17:46:00,
2013-02-28 12:51:00,45.7,39.9,29.51,SSE,158,0.5,0.5,80,0.00,CLR,,0.00,WeatherDisplay:10.37,2013-02-28 17:51:00,
2013-02-28 12:56:00,46.0,40.2,29.51,SSW,202,0.0,0.0,80,0.00,CLR,,0.00,WeatherDisplay:10.37,2013-02-28 17:56:00,
2013-02-28 13:01:00,46.0,40.2,29.51,WNW,292,0.5,0.5,80,0.00,CLR,,0.00,WeatherDisplay:10.37,2013-02-28 18:01:00,
2013-02-28 13:06:00,46.4,40.2,29.50,NNE,22,0.0,0.2,79,0.00,CLR,,0.00,WeatherDisplay:10.37,2013-02-28 18:06:00,
2013-02-28 13:11:00,46.6,40.4,29.50,ENE,68,0.5,0.5,79,0.00,CLR,,0.00,WeatherDisplay:10.37,2013-02-28 18:11:00,
2013-02-28 13:16:00,46.8,40.6,29.50,East,90,1.4,1.4,79,0.00,CLR,,0.00,WeatherDisplay:10.37,2013-02-28 18:16:00,
2013-02-28 13:21:00,46.8,40.3,29.51,ENE,68,1.1,2.3,78,0.00,CLR,,0.00,WeatherDisplay:10.37,2013-02-28 18:21:00,
2013-02-28 13:26:00,46.4,39.9,29.50,WNW,292,1.6,2.3,78,0.00,CLR,,0.00,WeatherDisplay:10.37,2013-02-28 18:26:00,
2013-02-28 13:31:00,46.4,39.6,29.50,North,0,1.8,1.8,77,0.00,CLR,,0.00,WeatherDisplay:10.37,2013-02-28 18:31:00,
2013-02-28 13:36:00,46.2,40.1,29.50,ENE,68,0.2,2.3,79,0.00,CLR,,0.00,WeatherDisplay:10.37,2013-02-28 18:36:00,
2013-02-28 13:41:00,46.2,39.7,29.50,ENE,68,1.6,3.5,78,0.00,CLR,,0.00,WeatherDisplay:10.37,2013-02-28 18:41:00,
2013-02-28 13:46:00,46.0,39.6,29.49,ENE,68,1.8,3.5,78,0.00,CLR,,0.00,WeatherDisplay:10.37,2013-02-28 18:46:00,
2013-02-28 13:51:00,46.2,39.4,29.49,ENE,68,2.9,5.8,77,0.00,CLR,,0.00,WeatherDisplay:10.37,2013-02-28 18:51:00,
2013-02-28 13:56:00,46.0,39.2,29.49,NE,45,1.1,2.3,77,0.00,CLR,,0.00,WeatherDisplay:10.37,2013-02-28 18:56:00,
2013-02-28 14:01:00,46.0,39.6,29.49,North,0,0.5,1.1,78,0.00,CLR,,0.00,WeatherDisplay:10.37,2013-02-28 19:01:00,
2013-02-28 14:06:00,46.0,39.6,29.49,North,0,1.8,3.5,78,0.00,CLR,,0.00,WeatherDisplay:10.37,2013-02-28 19:06:00,
2013-02-28 14:11:00,46.2,39.4,29.49,NNE,22,1.8,3.5,77,0.00,CLR,,0.00,WeatherDisplay:10.37,2013-02-28 19:11:00,
2013-02-28 14:16:00,45.9,39.1,29.48,North,0,0.5,2.3,77,0.00,CLR,,0.00,WeatherDisplay:10.37,2013-02-28 19:16:00,
2013-02-28 14:21:00,45.7,38.9,29.48,North,0,2.0,3.5,77,0.00,CLR,,0.00,WeatherDisplay:10.37,2013-02-28 19:21:00,
2013-02-28 14:26:00,45.9,39.1,29.48,ENE,68,4.0,4.7,77,0.00,CLR,,0.00,WeatherDisplay:10.37,2013-02-28 19:26:00,
2013-02-28 14:31:00,46.2,39.4,29.48,North,0,1.6,2.3,77,0.00,CLR,,0.00,WeatherDisplay:10.37,2013-02-28 19:31:00,
2013-02-28 14:36:00,46.4,39.6,29.47,NNW,338,1.4,2.3,77,0.00,CLR,,0.00,WeatherDisplay:10.37,2013-02-28 19:36:00,
2013-02-28 14:41:00,46.2,39.7,29.47,NNE,22,1.8,2.4,78,0.00,CLR,,0.00,WeatherDisplay:10.37,2013-02-28 19:41:00,
2013-02-28 14:46:00,46.2,39.4,29.47,North,0,1.6,1.6,77,0.00,CLR,,0.00,WeatherDisplay:10.37,2013-02-28 19:46:00,
2013-02-28 14:51:00,46.2,39.4,29.47,WNW,292,2.9,2.9,77,0.00,CLR,,0.00,WeatherDisplay:10.37,2013-02-28 19:51:00,
2013-02-28 14:56:00,45.7,38.9,29.48,North,0,2.2,2.3,77,0.00,CLR,,0.00,WeatherDisplay:10.37,2013-02-28 19:56:00,
2013-02-28 15:01:00,45.9,39.4,29.48,ENE,68,1.1,1.1,78,0.00,CLR,,0.00,WeatherDisplay:10.37,2013-02-28 20:01:00,
2013-02-28 15:06:00,46.0,39.2,29.48,NE,45,2.4,3.5,77,0.00,CLR,,0.00,WeatherDisplay:10.37,2013-02-28 20:06:00,
2013-02-28 15:11:00,45.9,39.4,29.48,NNW,338,1.8,1.8,78,0.00,CLR,,0.00,WeatherDisplay:10.37,2013-02-28 20:11:00,
2013-02-28 15:16:00,45.3,38.5,29.47,North,0,0.7,2.3,77,0.00,CLR,,0.00,WeatherDisplay:10.37,2013-02-28 20:16:00,
2013-02-28 15:21:00,45.1,38.4,29.47,NNW,338,1.8,2.6,77,0.00,CLR,,0.00,WeatherDisplay:10.37,2013-02-28 20:21:00,
2013-02-28 15:26:00,45.0,38.2,29.47,North,0,2.9,2.9,77,0.00,CLR,,0.00,WeatherDisplay:10.37,2013-02-28 20:26:00,
2013-02-28 15:31:00,44.8,38.3,29.47,NNE,22,5.2,5.2,78,0.00,CLR,,0.00,WeatherDisplay:10.37,2013-02-28 20:31:00,
2013-02-28 15:36:00,44.4,38.3,29.47,North,0,1.1,2.3,79,0.00,CLR,,0.00,WeatherDisplay:10.37,2013-02-28 20:36:00,
2013-02-28 15:41:00,44.4,38.0,29.47,NNW,338,0.9,2.3,78,0.00,CLR,,0.00,WeatherDisplay:10.37,2013-02-28 20:41:00,
2013-02-28 15:46:00,44.2,38.1,29.47,NNW,338,0.5,2.3,79,0.00,CLR,,0.00,WeatherDisplay:10.37,2013-02-28 20:46:00,
2013-02-28 15:51:00,44.1,38.0,29.47,North,0,0.0,2.3,79,0.00,CLR,,0.00,WeatherDisplay:10.37,2013-02-28 20:51:00,
2013-02-28 15:56:00,44.1,38.3,29.47,NE,45,0.9,2.3,80,0.00,CLR,,0.00,WeatherDisplay:10.37,2013-02-28 20:56:00,
2013-02-28 16:01:00,43.9,38.1,29.47,NNW,338,0.9,2.3,80,0.00,CLR,,0.00,WeatherDisplay:10.37,2013-02-28 21:01:00,
2013-02-28 16:06:00,43.5,37.8,29.47,NNE,22,0.9,3.5,80,0.00,CLR,,0.00,WeatherDisplay:10.37,2013-02-28 21:06:00,
2013-02-28 16:11:00,43.5,38.1,29.47,NE,45,0.7,1.1,81,0.00,CLR,,0.00,WeatherDisplay:10.37,2013-02-28 21:11:00,
2013-02-28 16:16:00,43.5,37.8,29.47,NNE,22,1.1,2.3,80,0.00,CLR,,0.00,WeatherDisplay:10.37,2013-02-28 21:16:00,
2013-02-28 16:21:00,43.3,37.9,29.47,NNE,22,1.1,1.1,81,0.00,CLR,,0.00,WeatherDisplay:10.37,2013-02-28 21:21:00,
2013-02-28 16:26:00,43.3,37.9,29.47,NNW,338,0.7,2.3,81,0.00,CLR,,0.00,WeatherDisplay:10.37,2013-02-28 21:26:00,
2013-02-28 16:31:00,43.3,37.9,29.47,ENE,68,0.5,2.3,81,0.00,CLR,,0.00,WeatherDisplay:10.37,2013-02-28 21:31:00,
2013-02-28 16:36:00,43.2,37.7,29.47,North,0,2.4,2.4,81,0.00,CLR,,0.00,WeatherDisplay:10.37,2013-02-28 21:36:00,
2013-02-28 16:41:00,43.0,37.5,29.47,North,0,0.9,1.6,81,0.00,CLR,,0.00,WeatherDisplay:10.37,2013-02-28 21:41:00,
2013-02-28 16:46:00,42.8,37.4,29.47,NE,45,2.4,2.4,81,0.00,CLR,,0.00,WeatherDisplay:10.37,2013-02-28 21:46:00,
2013-02-28 16:51:00,42.4,37.0,29.47,NNW,338,0.7,1.1,81,0.00,CLR,,0.00,WeatherDisplay:10.37,2013-02-28 21:51:00,
2013-02-28 16:56:00,42.3,36.8,29.47,NNE,22,1.4,1.4,81,0.00,CLR,,0.00,WeatherDisplay:10.37,2013-02-28 21:56:00,
2013-02-28 17:01:00,42.1,36.7,29.47,NNE,22,0.5,1.1,81,0.00,CLR,,0.00,WeatherDisplay:10.37,2013-02-28 22:01:00,
2013-02-28 17:06:00,41.9,36.8,29.47,NNE,22,0.0,1.1,82,0.00,CLR,,0.00,WeatherDisplay:10.37,2013-02-28 22:06:00,
2013-02-28 17:11:00,41.7,36.6,29.47,NNE,22,0.0,0.0,82,0.00,CLR,,0.00,WeatherDisplay:10.37,2013-02-28 22:11:00,
2013-02-28 17:16:00,41.7,36.6,29.47,North,0,0.0,0.0,82,0.00,CLR,,0.00,WeatherDisplay:10.37,2013-02-28 22:16:00,
2013-02-28 17:21:00,41.5,36.5,29.47,East,90,0.5,1.1,82,0.00,CLR,,0.00,WeatherDisplay:10.37,2013-02-28 22:21:00,
2013-02-28 17:26:00,41.4,36.3,29.47,East,90,0.0,0.0,82,0.00,CLR,,0.00,WeatherDisplay:10.37,2013-02-28 22:26:00,
2013-02-28 17:31:00,41.2,36.4,29.47,East,90,0.0,0.0,83,0.00,CLR,,0.00,WeatherDisplay:10.37,2013-02-28 22:31:00,
2013-02-28 17:36:00,41.0,35.9,29.47,ENE,68,0.5,1.1,82,0.00,CLR,,0.00,WeatherDisplay:10.37,2013-02-28 22:36:00,
2013-02-28 17:41:00,40.8,35.7,29.47,NNE,22,0.5,0.5,82,0.00,CLR,,0.00,WeatherDisplay:10.37,2013-02-28 22:41:00,
2013-02-28 17:46:00,40.6,35.6,29.47,NNE,22,0.0,0.0,82,0.00,CLR,,0.00,WeatherDisplay:10.37,2013-02-28 22:46:00,
2013-02-28 17:51:00,40.5,35.4,29.48,NNE,22,0.0,0.0,82,0.00,CLR,,0.00,WeatherDisplay:10.37,2013-02-28 22:51:00,
2013-02-28 17:56:00,40.3,35.5,29.48,NNE,22,0.0,1.1,83,0.00,CLR,,0.00,WeatherDisplay:10.37,2013-02-28 22:56:00,
2013-02-28 18:01:00,40.3,35.5,29.48,NNE,22,0.0,1.1,83,0.00,CLR,,0.00,WeatherDisplay:10.37,2013-02-28 23:01:00,
2013-02-28 18:06:00,40.3,35.5,29.48,North,0,0.5,0.5,83,0.00,CLR,,0.00,WeatherDisplay:10.37,2013-02-28 23:06:00,
2013-02-28 18:11:00,40.3,35.5,29.48,NNE,22,0.0,1.1,83,0.00,CLR,,0.00,WeatherDisplay:10.37,2013-02-28 23:11:00,
2013-02-28 18:16:00,40.1,35.4,29.48,NNE,22,0.0,0.0,83,0.00,CLR,,0.00,WeatherDisplay:10.37,2013-02-28 23:16:00,
2013-02-28 18:21:00,40.1,35.4,29.48,North,0,0.5,0.5,83,0.00,CLR,,0.00,WeatherDisplay:10.37,2013-02-28 23:21:00,
2013-02-28 18:26:00,39.9,35.2,29.48,North,0,0.2,0.2,83,0.00,CLR,,0.00,WeatherDisplay:10.37,2013-02-28 23:26:00,
2013-02-28 18:31:00,39.7,35.3,29.48,NNW,338,0.2,1.1,84,0.00,CLR,,0.00,WeatherDisplay:10.37,2013-02-28 23:31:00,
2013-02-28 18:36:00,39.7,35.3,29.48,NE,45,1.1,1.1,84,0.00,CLR,,0.00,WeatherDisplay:10.37,2013-02-28 23:36:00,
2013-02-28 18:41:00,39.7,35.3,29.48,NE,45,0.2,0.2,84,0.00,CLR,,0.00,WeatherDisplay:10.37,2013-02-28 23:41:00,
2013-02-28 18:46:00,39.7,35.3,29.48,NNE,22,0.0,0.0,84,0.00,CLR,,0.00,WeatherDisplay:10.37,2013-02-28 23:46:00,
2013-02-28 18:51:00,39.7,35.3,29.48,North,0,0.2,0.2,84,0.00,CLR,,0.00,WeatherDisplay:10.37,2013-02-28 23:51:00,
2013-02-28 18:56:00,39.6,35.1,29.48,North,0,0.5,0.7,84,0.00,CLR,,0.00,WeatherDisplay:10.37,2013-02-28 23:56:00,
2013-02-28 19:01:00,39.4,34.9,29.48,North,0,0.0,0.0,84,0.00,CLR,,0.00,WeatherDisplay:10.37,2013-03-01 00:01:00,
2013-02-28 19:06:00,39.4,34.9,29.48,North,0,0.0,0.0,84,0.00,CLR,,0.00,WeatherDisplay:10.37,2013-03-01 00:06:00,
2013-02-28 19:11:00,39.4,34.9,29.48,North,0,0.0,0.0,84,0.00,CLR,,0.00,WeatherDisplay:10.37,2013-03-01 00:11:00,
2013-02-28 19:16:00,39.4,34.9,29.47,North,0,0.0,0.0,84,0.00,CLR,,0.00,WeatherDisplay:10.37,2013-03-01 00:16:00,
2013-02-28 19:21:00,39.4,34.9,29.47,North,0,0.0,0.0,84,0.00,CLR,,0.00,WeatherDisplay:10.37,2013-03-01 00:21:00,
2013-02-28 19:26:00,39.2,34.8,29.47,North,0,0.0,0.0,84,0.00,CLR,,0.00,WeatherDisplay:10.37,2013-03-01 00:26:00,
2013-02-28 19:31:00,39.2,34.8,29.47,North,0,0.0,0.0,84,0.00,CLR,,0.00,WeatherDisplay:10.37,2013-03-01 00:31:00,
2013-02-28 19:36:00,39.2,35.1,29.47,NE,45,0.5,0.5,85,0.00,CLR,,0.00,WeatherDisplay:10.37,2013-03-01 00:36:00,
2013-02-28 19:41:00,39.2,35.1,29.47,NE,45,0.0,0.0,85,0.00,CLR,,0.00,WeatherDisplay:10.37,2013-03-01 00:41:00,
2013-02-28 19:46:00,39.2,35.1,29.47,NE,45,0.0,0.0,85,0.00,CLR,,0.00,WeatherDisplay:10.37,2013-03-01 00:46:00,
2013-02-28 19:51:00,39.2,35.1,29.48,NE,45,0.0,0.0,85,0.00,CLR,,0.00,WeatherDisplay:10.37,2013-03-01 00:51:00,
2013-02-28 19:56:00,39.2,35.1,29.48,NE,45,0.0,0.0,85,0.00,CLR,,0.00,WeatherDisplay:10.37,2013-03-01 00:56:00,
2013-02-28 20:01:00,39.0,34.9,29.48,NE,45,0.0,0.0,85,0.00,CLR,,0.00,WeatherDisplay:10.37,2013-03-01 01:01:00,
2013-02-28 20:06:00,39.0,34.9,29.48,NE,45,0.0,0.0,85,0.00,CLR,,0.00,WeatherDisplay:10.37,2013-03-01 01:06:00,
2013-02-28 20:11:00,39.0,34.9,29.47,NE,45,0.0,0.0,85,0.00,CLR,,0.00,WeatherDisplay:10.37,2013-03-01 01:11:00,
2013-02-28 20:16:00,38.8,35.0,29.47,NE,45,0.0,0.0,86,0.00,CLR,,0.00,WeatherDisplay:10.37,2013-03-01 01:16:00,
2013-02-28 20:21:00,38.8,35.0,29.48,NE,45,0.0,0.0,86,0.00,CLR,,0.00,WeatherDisplay:10.37,2013-03-01 01:21:00,
2013-02-28 20:26:00,38.8,35.0,29.48,NE,45,0.0,0.0,86,0.00,CLR,,0.00,WeatherDisplay:10.37,2013-03-01 01:26:00,
2013-02-28 20:31:00,38.8,35.0,29.47,NE,45,0.0,0.0,86,0.00,CLR,,0.00,WeatherDisplay:10.37,2013-03-01 01:31:00,
2013-02-28 20:36:00,38.7,34.8,29.48,NE,45,0.0,0.0,86,0.00,CLR,,0.00,WeatherDisplay:10.37,2013-03-01 01:36:00,
2013-02-28 20:41:00,38.7,34.8,29.48,ENE,68,0.5,0.5,86,0.00,CLR,,0.00,WeatherDisplay:10.37,2013-03-01 01:41:00,
2013-02-28 20:46:00,38.7,34.8,29.47,ENE,68,0.0,0.0,86,0.00,CLR,,0.00,WeatherDisplay:10.37,2013-03-01 01:46:00,
2013-02-28 20:51:00,38.5,34.7,29.47,ENE,68,0.5,0.5,86,0.00,CLR,,0.00,WeatherDisplay:10.37,2013-03-01 01:51:00,
2013-02-28 20:56:00,38.5,34.9,29.47,ENE,68,0.0,0.0,87,0.00,CLR,,0.00,WeatherDisplay:10.37,2013-03-01 01:56:00,
2013-02-28 21:01:00,38.5,34.9,29.47,NE,45,0.0,0.5,87,0.00,CLR,,0.00,WeatherDisplay:10.37,2013-03-01 02:01:00,
2013-02-28 21:06:00,38.5,34.9,29.47,NE,45,0.0,0.0,87,0.00,CLR,,0.00,WeatherDisplay:10.37,2013-03-01 02:06:00,
2013-02-28 21:11:00,38.5,34.9,29.47,NE,45,0.0,0.0,87,0.00,CLR,,0.00,WeatherDisplay:10.37,2013-03-01 02:11:00,
2013-02-28 21:16:00,38.5,34.9,29.47,NE,45,0.0,0.0,87,0.00,CLR,,0.00,WeatherDisplay:10.37,2013-03-01 02:16:00,
2013-02-28 21:21:00,38.5,34.9,29.47,NE,45,0.2,0.2,87,0.00,CLR,,0.00,WeatherDisplay:10.37,2013-03-01 02:21:00,
2013-02-28 21:26:00,38.3,34.8,29.47,NE,45,0.0,0.0,87,0.00,CLR,,0.00,WeatherDisplay:10.37,2013-03-01 02:26:00,
2013-02-28 21:31:00,38.3,34.8,29.47,NE,45,0.0,0.0,87,0.00,CLR,,0.00,WeatherDisplay:10.37,2013-03-01 02:31:00,
2013-02-28 21:36:00,38.3,34.8,29.46,NE,45,0.0,0.0,87,0.00,CLR,,0.00,WeatherDisplay:10.37,2013-03-01 02:36:00,
2013-02-28 21:41:00,38.3,34.8,29.46,NE,45,0.0,0.0,87,0.00,CLR,,0.00,WeatherDisplay:10.37,2013-03-01 02:41:00,
2013-02-28 21:46:00,38.3,34.8,29.46,NE,45,0.0,0.0,87,0.00,CLR,,0.00,WeatherDisplay:10.37,2013-03-01 02:46:00,
2013-02-28 21:51:00,38.3,34.8,29.46,NE,45,0.0,0.0,87,0.00,CLR,,0.00,WeatherDisplay:10.37,2013-03-01 02:51:00,
2013-02-28 21:56:00,38.1,34.6,29.46,NE,45,0.0,0.0,87,0.00,CLR,,0.00,WeatherDisplay:10.37,2013-03-01 02:56:00,
2013-02-28 22:01:00,38.1,34.6,29.46,NE,45,0.0,0.0,87,0.00,CLR,,0.00,WeatherDisplay:10.37,2013-03-01 03:01:00,
2013-02-28 22:06:00,37.9,34.4,29.46,NE,45,0.0,0.0,87,0.00,CLR,,0.00,WeatherDisplay:10.37,2013-03-01 03:06:00,
2013-02-28 22:11:00,37.8,34.2,29.46,NE,45,0.0,0.0,87,0.00,CLR,,0.00,WeatherDisplay:10.37,2013-03-01 03:11:00,
2013-02-28 22:16:00,37.8,34.2,29.45,NE,45,0.0,0.0,87,0.00,CLR,,0.00,WeatherDisplay:10.37,2013-03-01 03:16:00,
2013-02-28 22:21:00,37.8,34.2,29.46,NE,45,0.0,0.0,87,0.00,CLR,,0.00,WeatherDisplay:10.37,2013-03-01 03:21:00,
2013-02-28 22:26:00,37.4,33.9,29.45,NE,45,0.0,0.0,87,0.00,CLR,,0.00,WeatherDisplay:10.37,2013-03-01 03:26:00,
2013-02-28 22:31:00,37.4,33.9,29.45,NE,45,0.0,0.0,87,0.00,CLR,,0.00,WeatherDisplay:10.37,2013-03-01 03:31:00,
2013-02-28 22:36:00,37.0,33.5,29.45,NE,45,0.0,0.0,87,0.00,CLR,,0.00,WeatherDisplay:10.37,2013-03-01 03:36:00,
2013-02-28 22:41:00,37.0,33.5,29.45,NE,45,0.0,0.0,87,0.00,CLR,,0.00,WeatherDisplay:10.37,2013-03-01 03:41:00,
2013-02-28 22:46:00,36.9,33.4,29.45,NE,45,0.0,0.0,87,0.00,CLR,,0.00,WeatherDisplay:10.37,2013-03-01 03:46:00,
2013-02-28 22:51:00,36.7,33.2,29.45,NE,45,0.0,0.0,87,0.00,CLR,,0.00,WeatherDisplay:10.37,2013-03-01 03:51:00,
2013-02-28 22:56:00,36.7,33.5,29.45,NE,45,0.0,0.0,88,0.00,CLR,,0.00,WeatherDisplay:10.37,2013-03-01 03:56:00,
2013-02-28 23:01:00,36.9,33.6,29.45,NE,45,0.0,0.0,88,0.00,CLR,,0.00,WeatherDisplay:10.37,2013-03-01 04:01:00,
2013-02-28 23:06:00,36.9,33.4,29.45,NE,45,0.0,0.0,87,0.00,CLR,,0.00,WeatherDisplay:10.37,2013-03-01 04:06:00,
2013-02-28 23:11:00,37.0,33.5,29.45,NE,45,0.0,0.0,87,0.00,CLR,,0.00,WeatherDisplay:10.37,2013-03-01 04:11:00,
2013-02-28 23:16:00,37.0,33.5,29.45,NE,45,0.0,0.0,87,0.00,CLR,,0.00,WeatherDisplay:10.37,2013-03-01 04:16:00,
2013-02-28 23:21:00,37.0,33.5,29.45,NE,45,0.0,0.0,87,0.00,CLR,,0.00,WeatherDisplay:10.37,2013-03-01 04:21:00,
2013-02-28 23:26:00,37.2,33.7,29.45,NE,45,0.0,0.0,87,0.00,CLR,,0.00,WeatherDisplay:10.37,2013-03-01 04:26:00,
2013-02-28 23:31:00,37.2,33.7,29.45,NE,45,0.0,0.0,87,0.00,CLR,,0.00,WeatherDisplay:10.37,2013-03-01 04:31:00,
2013-02-28 23:36:00,37.4,34.2,29.45,NE,45,0.0,0.0,88,0.00,CLR,,0.00,WeatherDisplay:10.37,2013-03-01 04:36:00,
2013-02-28 23:41:00,37.4,34.5,29.45,NE,45,0.0,0.0,89,0.00,CLR,,0.00,WeatherDisplay:10.37,2013-03-01 04:41:00,
2013-02-28 23:46:00,37.6,34.6,29.45,NE,45,0.0,0.0,89,0.00,CLR,,0.00,WeatherDisplay:10.37,2013-03-01 04:46:00,
2013-02-28 23:51:00,37.4,34.5,29.45,NE,45,0.0,0.2,89,0.00,CLR,,0.00,WeatherDisplay:10.37,2013-03-01 04:51:00,
2013-02-28 23:56:00,37.6,34.6,29.45,NE,45,0.0,0.0,89,0.00,CLR,,0.00,WeatherDisplay:10.37,2013-03-01 04:56:00,